Time,TemperatureF,DewpointF,PressureIn,WindDirection,WindDirectionDegrees,WindSpeedMPH,WindSpeedGustMPH,Humidity,HourlyPrecipIn,Conditions,Clouds,dailyrainin,SolarRadiationWatts/m^2,SoftwareType,DateUTC
2013-01-15 00:02:00,0.0,-5.0,-100.00,NW,321,1.0,3.0,79,0.00,,,0.00,0.000000,,2013-01-15 07:02:00,
2013-01-15 00:11:00,0.0,-5.0,-100.00,NW,321,1.0,3.0,79,0.00,,,0.00,0.000000,,2013-01-15 07:11:00,
2013-01-15 00:12:00,2.0,-3.0,-100.00,North,4,3.0,5.0,80,0.00,,,0.00,0.000000,,2013-01-15 07:12:00,
2013-01-15 00:33:00,2.0,-3.0,-100.00,North,4,3.0,5.0,80,0.00,,,0.00,0.000000,,2013-01-15 07:33:00,
2013-01-15 00:43:00,2.0,-3.0,-100.00,North,4,3.0,5.0,80,0.00,,,0.00,0.000000,,2013-01-15 07:43:00,
2013-01-15 00:52:00,2.0,-3.0,-100.00,North,4,3.0,5.0,80,0.00,,,0.00,0.000000,,2013-01-15 07:52:00,
2013-01-15 01:02:00,2.0,-3.0,-100.00,North,4,3.0,5.0,80,0.00,,,0.00,0.000000,,2013-01-15 08:02:00,
2013-01-15 01:33:00,1.0,-4.0,-100.00,North,5,1.0,4.0,78,0.00,,,0.00,0.000000,,2013-01-15 08:33:00,
2013-01-15 01:43:00,1.0,-4.0,-100.00,North,5,1.0,4.0,78,0.00,,,0.00,0.000000,,2013-01-15 08:43:00,
2013-01-15 01:53:00,1.0,-4.0,-100.00,North,5,1.0,4.0,78,0.00,,,0.00,0.000000,,2013-01-15 08:53:00,
2013-01-15 02:02:00,1.0,-4.0,-100.00,North,5,1.0,4.0,78,0.00,,,0.00,0.000000,,2013-01-15 09:02:00,
2013-01-15 02:11:00,1.0,-4.0,-100.00,North,5,1.0,4.0,78,0.00,,,0.00,0.000000,,2013-01-15 09:11:00,
2013-01-15 02:42:00,0.0,-5.0,-100.00,NE,44,1.0,4.0,77,0.00,,,0.00,0.000000,,2013-01-15 09:42:00,
2013-01-15 02:52:00,0.0,-5.0,-100.00,NE,44,1.0,4.0,77,0.00,,,0.00,0.000000,,2013-01-15 09:52:00,
2013-01-15 03:02:00,0.0,-5.0,-100.00,NE,44,1.0,4.0,77,0.00,,,0.00,0.000000,,2013-01-15 10:02:00,
2013-01-15 03:11:00,0.0,-5.0,-100.00,NE,44,1.0,4.0,77,0.00,,,0.00,0.000000,,2013-01-15 10:11:00,
2013-01-15 03:12:00,-1.0,-6.0,-100.00,ENE,69,1.0,2.0,77,0.00,,,0.00,0.000000,,2013-01-15 10:12:00,
2013-01-15 03:33:00,-1.0,-6.0,-100.00,ENE,69,1.0,2.0,77,0.00,,,0.00,0.000000,,2013-01-15 10:33:00,
2013-01-15 03:42:00,-1.0,-6.0,-100.00,ENE,69,1.0,2.0,77,0.00,,,0.00,0.000000,,2013-01-15 10:42:00,
2013-01-15 03:52:00,-1.0,-6.0,-100.00,ENE,69,1.0,2.0,77,0.00,,,0.00,0.000000,,2013-01-15 10:52:00,
2013-01-15 04:02:00,-1.0,-6.0,-100.00,ENE,69,1.0,2.0,77,0.00,,,0.00,0.000000,,2013-01-15 11:02:00,
2013-01-15 04:12:00,-1.0,-6.0,-100.00,SE,140,2.0,2.0,77,0.00,,,0.00,0.000000,,2013-01-15 11:12:00,
2013-01-15 04:33:00,-1.0,-6.0,-100.00,SE,140,2.0,2.0,77,0.00,,,0.00,0.000000,,2013-01-15 11:33:00,
2013-01-15 04:43:00,-1.0,-6.0,-100.00,SE,140,2.0,2.0,77,0.00,,,0.00,0.000000,,2013-01-15 11:43:00,
2013-01-15 04:53:00,-1.0,-6.0,-100.00,SE,140,2.0,2.0,77,0.00,,,0.00,0.000000,,2013-01-15 11:53:00,
2013-01-15 05:02:00,-1.0,-6.0,-100.00,SE,140,2.0,2.0,77,0.00,,,0.00,0.000000,,2013-01-15 12:02:00,
2013-01-15 05:33:00,-2.0,-7.0,-100.00,East,99,0.0,2.0,77,0.00,,,0.00,0.000000,,2013-01-15 12:33:00,
2013-01-15 05:43:00,-2.0,-7.0,-100.00,East,99,0.0,2.0,77,0.00,,,0.00,0.000000,,2013-01-15 12:43:00,
2013-01-15 05:53:00,-2.0,-7.0,-100.00,East,99,0.0,2.0,77,0.00,,,0.00,0.000000,,2013-01-15 12:53:00,
2013-01-15 06:02:00,-2.0,-7.0,-100.00,East,99,0.0,2.0,77,0.00,,,0.00,0.000000,,2013-01-15 13:02:00,
2013-01-15 06:11:00,-2.0,-7.0,-100.00,East,99,0.0,2.0,77,0.00,,,0.00,0.000000,,2013-01-15 13:11:00,
2013-01-15 06:12:00,-3.0,-9.0,-100.00,East,81,0.0,1.0,75,0.00,,,0.00,0.000000,,2013-01-15 13:12:00,
2013-01-15 06:33:00,-3.0,-9.0,-100.00,East,81,0.0,1.0,75,0.00,,,0.00,0.000000,,2013-01-15 13:33:00,
2013-01-15 06:43:00,-3.0,-9.0,-100.00,East,81,0.0,1.0,75,0.00,,,0.00,0.000000,,2013-01-15 13:43:00,
2013-01-15 06:53:00,-3.0,-9.0,-100.00,East,81,0.0,1.0,75,0.00,,,0.00,0.000000,,2013-01-15 13:53:00,
2013-01-15 07:02:00,-3.0,-9.0,-100.00,East,81,0.0,1.0,75,0.00,,,0.00,0.000000,,2013-01-15 14:02:00,
2013-01-15 07:12:00,-2.0,-7.0,-100.00,East,80,1.0,1.0,77,0.00,,,0.00,0.000000,,2013-01-15 14:12:00,
2013-01-15 07:33:00,-2.0,-7.0,-100.00,East,80,1.0,1.0,77,0.00,,,0.00,0.000000,,2013-01-15 14:33:00,
2013-01-15 07:43:00,-2.0,-7.0,-100.00,East,80,1.0,1.0,77,0.00,,,0.00,0.000000,,2013-01-15 14:43:00,
2013-01-15 07:53:00,-2.0,-7.0,-100.00,East,80,1.0,1.0,77,0.00,,,0.00,0.000000,,2013-01-15 14:53:00,
2013-01-15 08:03:00,-2.0,-7.0,-100.00,East,80,1.0,1.0,77,0.00,,,0.00,0.000000,,2013-01-15 15:03:00,
2013-01-15 08:33:00,2.0,-4.0,-100.00,NW,320,0.0,0.0,74,0.00,,,0.00,12.000000,,2013-01-15 15:33:00,
2013-01-15 08:43:00,2.0,-4.0,-100.00,NW,320,0.0,0.0,74,0.00,,,0.00,12.000000,,2013-01-15 15:43:00,
2013-01-15 08:53:00,2.0,-4.0,-100.00,NW,320,0.0,0.0,74,0.00,,,0.00,12.000000,,2013-01-15 15:53:00,
2013-01-15 09:02:00,2.0,-4.0,-100.00,NW,320,0.0,0.0,74,0.00,,,0.00,12.000000,,2013-01-15 16:02:00,
2013-01-15 09:11:00,2.0,-4.0,-100.00,NW,320,0.0,0.0,74,0.00,,,0.00,12.000000,,2013-01-15 16:11:00,
2013-01-15 09:12:00,6.0,-2.0,-100.00,NW,324,0.0,2.0,70,-99.99,,,0.00,49.000000,,2013-01-15 16:12:00,
2013-01-15 09:33:00,6.0,-2.0,-100.00,NW,324,0.0,2.0,70,-99.99,,,0.00,49.000000,,2013-01-15 16:33:00,
2013-01-15 09:43:00,6.0,-2.0,-100.00,NW,324,0.0,2.0,70,-99.99,,,0.00,49.000000,,2013-01-15 16:43:00,
2013-01-15 09:53:00,6.0,-2.0,-100.00,NW,324,0.0,2.0,70,-99.99,,,0.00,49.000000,,2013-01-15 16:53:00,
2013-01-15 10:03:00,6.0,-2.0,-100.00,NW,324,0.0,2.0,70,-99.99,,,0.00,49.000000,,2013-01-15 17:03:00,
2013-01-15 10:43:00,15.0,7.0,-100.00,SSE,162,1.0,2.0,70,0.00,,,0.00,91.000000,,2013-01-15 17:43:00,
2013-01-15 10:53:00,15.0,7.0,-100.00,SSE,162,1.0,2.0,70,0.00,,,0.00,91.000000,,2013-01-15 17:53:00,
2013-01-15 11:02:00,15.0,7.0,-100.00,SSE,162,1.0,2.0,70,0.00,,,0.00,91.000000,,2013-01-15 18:02:00,
2013-01-15 11:12:00,17.0,7.0,-100.00,SSE,148,3.0,6.0,65,0.01,,,0.01,133.000000,,2013-01-15 18:12:00,
2013-01-15 11:33:00,17.0,7.0,-100.00,SSE,148,3.0,6.0,65,0.01,,,0.01,133.000000,,2013-01-15 18:33:00,
2013-01-15 11:43:00,17.0,7.0,-100.00,SSE,148,3.0,6.0,65,0.01,,,0.01,133.000000,,2013-01-15 18:43:00,
2013-01-15 11:53:00,17.0,7.0,-100.00,SSE,148,3.0,6.0,65,0.01,,,0.01,133.000000,,2013-01-15 18:53:00,
2013-01-15 12:03:00,17.0,7.0,-100.00,SSE,148,3.0,6.0,65,0.01,,,0.01,133.000000,,2013-01-15 19:03:00,
2013-01-15 12:12:00,18.0,8.0,-100.00,NNW,331,3.0,6.0,64,0.04,,,0.05,164.000000,,2013-01-15 19:12:00,
2013-01-15 12:33:00,18.0,8.0,-100.00,NNW,331,3.0,6.0,64,0.04,,,0.05,164.000000,,2013-01-15 19:33:00,
2013-01-15 12:43:00,18.0,8.0,-100.00,NNW,331,3.0,6.0,64,0.04,,,0.05,164.000000,,2013-01-15 19:43:00,
2013-01-15 12:53:00,18.0,8.0,-100.00,NNW,331,3.0,6.0,64,0.04,,,0.05,164.000000,,2013-01-15 19:53:00,
2013-01-15 13:03:00,18.0,8.0,-100.00,NNW,331,3.0,6.0,64,0.04,,,0.05,164.000000,,2013-01-15 20:03:00,
2013-01-15 13:12:00,17.0,5.0,-100.00,SSW,200,5.0,8.0,59,0.00,,,0.05,176.000000,,2013-01-15 20:12:00,
2013-01-15 13:33:00,17.0,5.0,-100.00,SSW,200,5.0,8.0,59,0.00,,,0.05,176.000000,,2013-01-15 20:33:00,
2013-01-15 13:43:00,17.0,5.0,-100.00,SSW,200,5.0,8.0,59,0.00,,,0.05,176.000000,,2013-01-15 20:43:00,
2013-01-15 13:53:00,17.0,5.0,-100.00,SSW,200,5.0,8.0,59,0.00,,,0.05,176.000000,,2013-01-15 20:53:00,
2013-01-15 14:02:00,17.0,5.0,-100.00,SSW,200,5.0,8.0,59,0.00,,,0.05,176.000000,,2013-01-15 21:02:00,
2013-01-15 14:34:00,16.0,3.0,-100.00,West,262,6.0,10.0,56,0.01,,,0.06,162.000000,,2013-01-15 21:34:00,
2013-01-15 14:43:00,16.0,3.0,-100.00,West,262,6.0,10.0,56,0.01,,,0.06,162.000000,,2013-01-15 21:43:00,
2013-01-15 14:53:00,16.0,3.0,-100.00,West,262,6.0,10.0,56,0.01,,,0.06,162.000000,,2013-01-15 21:53:00,
2013-01-15 15:02:00,16.0,3.0,-100.00,West,262,6.0,10.0,56,0.01,,,0.06,162.000000,,2013-01-15 22:02:00,
2013-01-15 15:11:00,16.0,3.0,-100.00,West,262,6.0,10.0,56,0.01,,,0.06,162.000000,,2013-01-15 22:11:00,
2013-01-15 15:12:00,16.0,2.0,-100.00,SW,219,5.0,8.0,52,0.01,,,0.07,104.000000,,2013-01-15 22:12:00,
2013-01-15 15:33:00,16.0,2.0,-100.00,SW,219,5.0,8.0,52,0.01,,,0.07,104.000000,,2013-01-15 22:33:00,
2013-01-15 15:43:00,16.0,2.0,-100.00,SW,219,5.0,8.0,52,0.01,,,0.07,104.000000,,2013-01-15 22:43:00,
2013-01-15 15:53:00,16.0,2.0,-100.00,SW,219,5.0,8.0,52,0.01,,,0.07,104.000000,,2013-01-15 22:53:00,
2013-01-15 16:02:00,16.0,2.0,-100.00,SW,219,5.0,8.0,52,0.01,,,0.07,104.000000,,2013-01-15 23:02:00,
2013-01-15 16:12:00,11.0,-1.0,-100.00,SW,222,3.0,7.0,58,0.00,,,0.07,33.000000,,2013-01-15 23:12:00,
2013-01-15 16:43:00,11.0,-1.0,-100.00,SW,222,3.0,7.0,58,0.00,,,0.07,33.000000,,2013-01-15 23:43:00,
2013-01-15 16:53:00,11.0,-1.0,-100.00,SW,222,3.0,7.0,58,0.00,,,0.07,33.000000,,2013-01-15 23:53:00,
2013-01-15 17:02:00,11.0,-1.0,-100.00,SW,222,3.0,7.0,58,0.00,,,0.07,33.000000,,2013-01-16 00:02:00,
2013-01-15 17:12:00,8.0,-4.0,-100.00,WNW,284,3.0,7.0,57,0.00,,,0.07,10.000000,,2013-01-16 00:12:00,
2013-01-15 17:33:00,8.0,-4.0,-100.00,WNW,284,3.0,7.0,57,0.00,,,0.07,10.000000,,2013-01-16 00:33:00,
2013-01-15 17:43:00,8.0,-4.0,-100.00,WNW,284,3.0,7.0,57,0.00,,,0.07,10.000000,,2013-01-16 00:43:00,
2013-01-15 17:53:00,8.0,-4.0,-100.00,WNW,284,3.0,7.0,57,0.00,,,0.07,10.000000,,2013-01-16 00:53:00,
2013-01-15 18:02:00,8.0,-4.0,-100.00,WNW,284,3.0,7.0,57,0.00,,,0.07,10.000000,,2013-01-16 01:02:00,
2013-01-15 18:12:00,5.0,-5.0,-100.00,WNW,289,2.0,5.0,61,0.00,,,-99.99,0.000000,,2013-01-16 01:12:00,
2013-01-15 18:33:00,5.0,-5.0,-100.00,WNW,289,2.0,5.0,61,0.00,,,-99.99,0.000000,,2013-01-16 01:33:00,
2013-01-15 18:43:00,5.0,-5.0,-100.00,WNW,289,2.0,5.0,61,0.00,,,-99.99,0.000000,,2013-01-16 01:43:00,
2013-01-15 18:53:00,5.0,-5.0,-100.00,WNW,289,2.0,5.0,61,0.00,,,-99.99,0.000000,,2013-01-16 01:53:00,
2013-01-15 19:02:00,5.0,-5.0,-100.00,WNW,289,2.0,5.0,61,0.00,,,-99.99,0.000000,,2013-01-16 02:02:00,
2013-01-15 19:43:00,5.0,-4.0,-100.00,SW,219,2.0,5.0,66,0.00,,,0.07,0.000000,,2013-01-16 02:43:00,
2013-01-15 19:53:00,5.0,-4.0,-100.00,SW,219,2.0,5.0,66,0.00,,,0.07,0.000000,,2013-01-16 02:53:00,
2013-01-15 20:02:00,5.0,-4.0,-100.00,SW,219,2.0,5.0,66,0.00,,,0.07,0.000000,,2013-01-16 03:02:00,
2013-01-15 20:11:00,5.0,-4.0,-100.00,SW,219,2.0,5.0,66,0.00,,,0.07,0.000000,,2013-01-16 03:11:00,
2013-01-15 20:33:00,6.0,-5.0,-100.00,NW,325,4.0,6.0,61,0.00,,,0.07,0.000000,,2013-01-16 03:33:00,
2013-01-15 20:43:00,6.0,-5.0,-100.00,NW,325,4.0,6.0,61,0.00,,,0.07,0.000000,,2013-01-16 03:43:00,
2013-01-15 20:53:00,6.0,-5.0,-100.00,NW,325,4.0,6.0,61,0.00,,,0.07,0.000000,,2013-01-16 03:53:00,
2013-01-15 21:02:00,6.0,-5.0,-100.00,NW,325,4.0,6.0,61,0.00,,,0.07,0.000000,,2013-01-16 04:02:00,
2013-01-15 21:11:00,6.0,-5.0,-100.00,NW,325,4.0,6.0,61,0.00,,,0.07,0.000000,,2013-01-16 04:11:00,
2013-01-15 21:12:00,6.0,-5.0,-100.00,West,275,2.0,6.0,60,0.00,,,0.07,0.000000,,2013-01-16 04:12:00,
2013-01-15 21:33:00,6.0,-5.0,-100.00,West,275,2.0,6.0,60,0.00,,,0.07,0.000000,,2013-01-16 04:33:00,
2013-01-15 21:42:00,6.0,-5.0,-100.00,West,275,2.0,6.0,60,0.00,,,0.07,0.000000,,2013-01-16 04:42:00,
2013-01-15 21:52:00,6.0,-5.0,-100.00,West,275,2.0,6.0,60,0.00,,,0.07,0.000000,,2013-01-16 04:52:00,
2013-01-15 22:03:00,6.0,-5.0,-100.00,West,275,2.0,6.0,60,0.00,,,0.07,0.000000,,2013-01-16 05:03:00,
2013-01-15 22:33:00,5.0,-5.0,-100.00,SSE,164,2.0,6.0,63,0.00,,,0.07,0.000000,,2013-01-16 05:33:00,
2013-01-15 22:42:00,5.0,-5.0,-100.00,SSE,164,2.0,6.0,63,0.00,,,0.07,0.000000,,2013-01-16 05:42:00,
2013-01-15 22:53:00,5.0,-5.0,-100.00,SSE,164,2.0,6.0,63,0.00,,,0.07,0.000000,,2013-01-16 05:53:00,
2013-01-15 23:02:00,5.0,-5.0,-100.00,SSE,164,2.0,6.0,63,0.00,,,0.07,0.000000,,2013-01-16 06:02:00,
2013-01-15 23:33:00,5.0,-5.0,-100.00,NNW,341,3.0,5.0,62,0.00,,,0.07,0.000000,,2013-01-16 06:33:00,
2013-01-15 23:43:00,5.0,-5.0,-100.00,NNW,341,3.0,5.0,62,0.00,,,0.07,0.000000,,2013-01-16 06:43:00,
2013-01-15 23:53:00,5.0,-5.0,-100.00,NNW,341,3.0,5.0,62,0.00,,,0.07,0.000000,,2013-01-16 06:53:00,